Guatemala, Guatemala

7:41 AM CST on December 17, 2017 (GMT -0600)
La Aurora International

Weather History for MGGT - December, 2017

Change the Weather History Date:

Thursday, December 7, 2017

  Actual Average Record
Temperature  
Mean Temperature 68 °F -  
Max Temperature 77 °F 71 °F 80 °F (2004)
Min Temperature 59 °F 55 °F 51 °F (1998)
Cooling Degree Days 3    
Growing Degree Days 18 (Base 50)    
Moisture  
Dew Point 59 °F    
Average Humidity 78    
Maximum Humidity 100    
Minimum Humidity 54    
Precipitation  
Precipitation 0.00 in - - ()
Sea Level Pressure  
Sea Level Pressure 30.24 in    
Wind  
Wind Speed 15 mph ()    
Max Wind Speed 94 mph    
Max Gust Speed -    
Visibility 5.5 miles    
Events      
Averages and records for this station are not official NWS values.
T = Trace of Precipitation, MM = Missing Value Source: Averaged Metar Reports

Daily Weather History Graph

Daily Weather History Graph

Search for Another Location

Airport or City:

Trip Planner

Search our weather history database for the weather conditions in past years. The results will help you decide how hot, cold, wet, or windy it might be!

Date:

Astronomy

Dec. 07, 2017 Rise Set
Actual Time 6:14 AM CST 5:32 PM CST
Civil Twilight 5:51 AM CST 5:55 PM CST
Nautical Twilight 5:25 AM CST 6:22 PM CST
Astronomical Twilight 4:58 AM CST 6:48 PM CST
Moon 10:02 PM CST (12/7) 10:08 AM CST (12/7)
Length of Visible Light 12h 04m
Length of Day
11h 17m
Waning Gibbous, 77% of the Moon is Illuminated
Dec 7
Waning Gibbous
Dec 10
Last Quarter
Dec 18
New
Dec 26
First Quarter
Jan 1
Full

Hourly Weather History & Observations

Time (CST) Temp. Dew Point Humidity Pressure Visibility Wind Dir Wind Speed Gust Speed Precip Events Conditions
12:00 AM 60.8 °F 59.0 °F 94% 30.30 in 6.2 mi North 11.5 mph - N/A   Scattered Clouds
1:00 AM 60.8 °F 59.0 °F 94% 30.30 in 6.2 mi North 13.8 mph - N/A   Mostly Cloudy
2:00 AM 60.8 °F 59.0 °F 94% 30.27 in 6.2 mi North 11.5 mph - N/A   Scattered Clouds
3:00 AM 60.8 °F 59.0 °F 94% 30.27 in 6.2 mi North 11.5 mph - N/A   Partly Cloudy
4:00 AM 60.8 °F 57.2 °F 88% 30.24 in 6.2 mi NNE 9.2 mph - N/A   Partly Cloudy
5:00 AM 60.8 °F 57.2 °F 88% 30.27 in - NNE 11.5 mph - N/A   Clear
6:00 AM - - % 30.16 in 1 mi WSW 94.4 mph - -  
6:00 AM 60.8 °F 60.8 °F 100% 30.27 in 6.2 mi NNE 13.8 mph - N/A   Scattered Clouds
7:00 AM 59.0 °F 57.2 °F 94% 30.30 in 3.1 mi North 11.5 mph - N/A   Scattered Clouds
8:00 AM 62.6 °F 59.0 °F 88% 30.30 in 6.2 mi North 13.8 mph - N/A   Partly Cloudy
9:00 AM 68.0 °F 59.0 °F 73% 30.30 in - North 16.1 mph - N/A   Clear
10:00 AM 71.6 °F 57.2 °F 60% 30.27 in - North 11.5 mph - N/A   Clear
11:00 AM 75.2 °F 59.0 °F 57% 30.27 in 6.2 mi NNE 11.5 mph - N/A   Partly Cloudy
12:00 PM 75.2 °F 59.0 °F 57% 30.24 in 6.2 mi North 11.5 mph - N/A   Partly Cloudy
1:00 PM 77.0 °F 59.0 °F 54% 30.21 in 6.2 mi North 9.2 mph - N/A   Partly Cloudy
2:00 PM 75.2 °F 59.0 °F 57% 30.18 in 6.2 mi North 11.5 mph - N/A   Partly Cloudy
3:00 PM 73.4 °F 59.0 °F 61% 30.18 in 6.2 mi North 11.5 mph - N/A   Scattered Clouds
4:00 PM 69.8 °F 57.2 °F 64% 30.18 in 6.2 mi North 16.1 mph - N/A   Scattered Clouds
5:00 PM 69.8 °F 59.0 °F 68% 30.18 in 6.2 mi North 11.5 mph - N/A   Scattered Clouds
6:00 PM - - %  in 0 mi SE 94.4 mph - -  
6:00 PM 68.0 °F 57.2 °F 68% 30.18 in 6.2 mi NNE 9.2 mph - N/A   Scattered Clouds
7:00 PM 66.2 °F 59.0 °F 78% 30.21 in - North 9.2 mph - N/A   Clear
8:00 PM 64.4 °F 59.0 °F 83% 30.24 in 6.2 mi North 11.5 mph - N/A   Partly Cloudy
9:00 PM 64.4 °F 60.8 °F 88% 30.24 in 6.2 mi North 11.5 mph - N/A   Partly Cloudy
10:00 PM 64.4 °F 59.0 °F 83% 30.27 in 6.2 mi North 11.5 mph - N/A   Mostly Cloudy
11:00 PM 62.6 °F 60.8 °F 94% 30.27 in 6.2 mi North 9.2 mph - N/A   Overcast